Time,TemperatureF,DewpointF,PressureIn,WindDirection,WindDirectionDegrees,WindSpeedMPH,WindSpeedGustMPH,Humidity,HourlyPrecipIn,Conditions,Clouds,dailyrainin,SoftwareType,DateUTC
2013-05-07 00:02:00,60.7,49.7,29.98,ESE,118,0.0,0.0,67,0.00,,,0.00,WeatherDisplay:10.37,2013-05-07 05:02:00,
2013-05-07 00:07:00,60.8,48.1,29.98,ESE,118,0.1,1.0,63,0.00,,,0.00,WeatherDisplay:10.37,2013-05-07 05:07:00,
2013-05-07 00:12:00,61.6,49.3,29.98,ESE,118,0.0,1.1,64,0.00,,,0.00,WeatherDisplay:10.37,2013-05-07 05:12:00,
2013-05-07 00:17:00,61.7,51.4,29.98,ESE,119,0.0,0.0,69,0.00,,,0.00,WeatherDisplay:10.37,2013-05-07 05:17:00,
2013-05-07 00:22:00,61.7,51.0,29.98,ESE,118,1.0,1.1,68,0.00,,,0.00,WeatherDisplay:10.37,2013-05-07 05:22:00,
2013-05-07 00:27:00,61.5,50.4,29.98,ESE,119,0.9,1.1,67,0.00,,,0.00,WeatherDisplay:10.37,2013-05-07 05:27:00,
2013-05-07 00:32:00,61.4,50.7,29.98,ESE,119,0.0,0.0,68,0.00,,,0.00,WeatherDisplay:10.37,2013-05-07 05:32:00,
2013-05-07 00:37:00,61.1,50.5,29.98,ESE,118,0.0,0.0,68,0.00,,,0.00,WeatherDisplay:10.37,2013-05-07 05:37:00,
2013-05-07 00:42:00,61.0,53.0,29.98,ESE,118,0.0,0.0,75,0.00,,,0.00,WeatherDisplay:10.37,2013-05-07 05:42:00,
2013-05-07 00:47:00,60.5,53.6,29.98,ESE,118,0.0,0.0,78,0.00,,,0.00,WeatherDisplay:10.37,2013-05-07 05:47:00,
2013-05-07 00:52:00,60.0,53.1,29.98,ESE,119,0.0,0.0,78,0.00,,,0.00,WeatherDisplay:10.37,2013-05-07 05:52:00,
2013-05-07 00:57:00,59.5,53.0,29.98,ESE,119,0.0,0.0,79,0.00,,,0.00,WeatherDisplay:10.37,2013-05-07 05:57:00,
2013-05-07 01:02:00,59.1,52.9,29.99,ESE,118,0.0,0.0,80,0.00,,,0.00,WeatherDisplay:10.37,2013-05-07 06:02:00,
2013-05-07 01:07:00,59.0,52.8,29.99,ESE,118,0.0,0.0,80,0.00,,,0.00,WeatherDisplay:10.37,2013-05-07 06:07:00,
2013-05-07 01:12:00,58.9,52.1,29.99,ESE,118,0.0,0.0,78,0.00,,,0.00,WeatherDisplay:10.37,2013-05-07 06:12:00,
2013-05-07 01:17:00,58.8,51.2,29.99,ESE,119,0.0,0.0,76,0.00,,,0.00,WeatherDisplay:10.37,2013-05-07 06:17:00,
2013-05-07 01:22:00,58.8,51.6,29.99,ESE,118,0.0,0.0,77,0.00,,,0.00,WeatherDisplay:10.37,2013-05-07 06:22:00,
2013-05-07 01:27:00,58.7,50.4,29.98,ESE,118,0.0,0.0,74,0.00,,,0.00,WeatherDisplay:10.37,2013-05-07 06:27:00,
2013-05-07 01:32:00,59.1,51.5,29.98,ESE,119,0.0,0.0,76,0.00,,,0.00,WeatherDisplay:10.37,2013-05-07 06:32:00,
2013-05-07 01:37:00,59.1,52.6,29.98,ESE,118,0.0,0.0,79,0.00,,,0.00,WeatherDisplay:10.37,2013-05-07 06:37:00,
2013-05-07 01:42:00,58.8,50.9,29.98,ESE,118,0.0,0.0,75,0.00,,,0.00,WeatherDisplay:10.37,2013-05-07 06:42:00,
2013-05-07 01:47:00,59.0,51.1,29.98,ESE,119,1.0,1.1,75,0.00,,,0.00,WeatherDisplay:10.37,2013-05-07 06:47:00,
2013-05-07 01:52:00,59.1,52.2,29.98,ESE,119,0.9,1.1,78,0.00,,,0.00,WeatherDisplay:10.37,2013-05-07 06:52:00,
2013-05-07 01:57:00,58.8,51.6,29.98,ESE,119,0.0,0.0,77,0.00,,,0.00,WeatherDisplay:10.37,2013-05-07 06:57:00,
2013-05-07 02:02:00,58.7,51.5,29.98,ESE,119,0.0,1.1,77,0.00,,,0.00,WeatherDisplay:10.37,2013-05-07 07:02:00,
2013-05-07 02:07:00,58.8,50.9,29.98,ESE,118,0.1,1.1,75,0.00,,,0.00,WeatherDisplay:10.37,2013-05-07 07:07:00,
2013-05-07 02:12:00,59.1,50.5,29.98,ESE,118,0.0,0.0,73,0.00,,,0.00,WeatherDisplay:10.37,2013-05-07 07:12:00,
2013-05-07 02:17:00,59.4,50.7,29.98,ESE,118,1.0,1.1,73,0.00,,,0.00,WeatherDisplay:10.37,2013-05-07 07:17:00,
2013-05-07 02:22:00,59.1,52.9,29.98,ESE,119,1.0,1.1,80,0.00,,,0.00,WeatherDisplay:10.37,2013-05-07 07:22:00,
2013-05-07 02:27:00,58.7,51.9,29.97,ESE,118,0.0,0.0,78,0.00,,,0.00,WeatherDisplay:10.37,2013-05-07 07:27:00,
2013-05-07 02:32:00,59.1,51.2,29.98,ESE,119,0.0,1.1,75,0.00,,,0.00,WeatherDisplay:10.37,2013-05-07 07:32:00,
2013-05-07 02:38:00,59.4,51.5,29.98,ESE,119,0.0,0.0,75,0.00,,,0.00,WeatherDisplay:10.37,2013-05-07 07:38:00,
2013-05-07 02:43:00,59.1,52.2,29.98,ESE,118,0.0,0.0,78,0.00,,,0.00,WeatherDisplay:10.37,2013-05-07 07:43:00,
2013-05-07 02:48:00,58.5,52.7,29.98,ESE,118,0.0,0.0,81,0.00,,,0.00,WeatherDisplay:10.37,2013-05-07 07:48:00,
2013-05-07 02:53:00,57.9,52.1,29.98,ESE,118,0.0,0.0,81,0.00,,,0.00,WeatherDisplay:10.37,2013-05-07 07:53:00,
2013-05-07 02:58:00,57.4,51.9,29.98,ESE,119,0.0,0.0,82,0.00,,,0.00,WeatherDisplay:10.37,2013-05-07 07:58:00,
2013-05-07 03:03:00,57.1,51.7,29.98,ESE,118,0.0,0.0,82,0.00,,,0.00,WeatherDisplay:10.37,2013-05-07 08:03:00,
2013-05-07 03:08:00,57.0,50.5,29.98,ESE,118,0.0,0.0,79,0.00,,,0.00,WeatherDisplay:10.37,2013-05-07 08:08:00,
2013-05-07 03:13:00,57.1,50.3,29.98,ESE,119,0.0,0.0,78,0.00,,,0.00,WeatherDisplay:10.37,2013-05-07 08:13:00,
2013-05-07 03:18:00,57.6,50.4,29.98,ESE,118,0.0,1.1,77,0.00,,,0.00,WeatherDisplay:10.37,2013-05-07 08:18:00,
2013-05-07 03:23:00,57.9,51.1,29.98,ESE,118,0.1,1.1,78,0.00,,,0.00,WeatherDisplay:10.37,2013-05-07 08:23:00,
2013-05-07 03:28:00,58.1,52.0,29.98,ESE,118,0.0,0.0,80,0.00,,,0.00,WeatherDisplay:10.37,2013-05-07 08:28:00,
2013-05-07 03:33:00,57.7,51.6,29.98,ESE,118,0.0,0.0,80,0.00,,,0.00,WeatherDisplay:10.37,2013-05-07 08:33:00,
2013-05-07 03:38:00,57.1,51.7,29.98,ESE,118,0.0,0.0,82,0.00,,,0.00,WeatherDisplay:10.37,2013-05-07 08:38:00,
2013-05-07 03:43:00,56.6,51.8,29.98,ESE,119,0.0,0.0,84,0.00,,,0.00,WeatherDisplay:10.37,2013-05-07 08:43:00,
2013-05-07 03:48:00,56.3,51.8,29.98,ESE,118,0.0,0.0,85,0.00,,,0.00,WeatherDisplay:10.37,2013-05-07 08:48:00,
2013-05-07 03:53:00,56.0,50.9,29.98,ESE,119,0.0,0.0,83,0.00,,,0.00,WeatherDisplay:10.37,2013-05-07 08:53:00,
2013-05-07 03:58:00,55.7,50.3,29.98,ESE,119,0.0,0.0,82,0.00,,,0.00,WeatherDisplay:10.37,2013-05-07 08:58:00,
2013-05-07 04:03:00,55.6,49.9,29.98,ESE,118,0.4,1.1,81,0.00,,,0.00,WeatherDisplay:10.37,2013-05-07 09:03:00,
2013-05-07 04:08:00,55.5,50.7,29.98,ESE,118,0.0,1.1,84,0.00,,,0.00,WeatherDisplay:10.37,2013-05-07 09:08:00,
2013-05-07 04:13:00,55.3,50.2,29.98,ESE,118,0.0,0.0,83,0.00,,,0.00,WeatherDisplay:10.37,2013-05-07 09:13:00,
2013-05-07 04:18:00,55.1,49.4,29.98,ESE,118,0.0,0.0,81,0.00,,,0.00,WeatherDisplay:10.37,2013-05-07 09:18:00,
2013-05-07 04:23:00,55.0,49.6,29.98,ESE,118,0.1,1.1,82,0.00,,,0.00,WeatherDisplay:10.37,2013-05-07 09:23:00,
2013-05-07 04:28:00,55.4,49.3,29.98,ESE,118,0.0,0.0,80,0.00,,,0.00,WeatherDisplay:10.37,2013-05-07 09:28:00,
2013-05-07 04:33:00,55.8,50.1,29.98,ESE,118,0.0,0.0,81,0.00,,,0.00,WeatherDisplay:10.37,2013-05-07 09:33:00,
2013-05-07 04:38:00,55.7,50.3,29.99,ESE,118,0.0,0.0,82,0.00,,,0.00,WeatherDisplay:10.37,2013-05-07 09:38:00,
2013-05-07 04:43:00,55.7,50.6,29.99,ESE,118,1.0,2.3,83,0.00,,,0.00,WeatherDisplay:10.37,2013-05-07 09:43:00,
2013-05-07 04:48:00,55.6,50.8,29.99,ESE,118,0.0,0.0,84,0.00,,,0.00,WeatherDisplay:10.37,2013-05-07 09:48:00,
2013-05-07 04:53:00,55.5,51.1,29.99,ESE,118,0.3,1.1,85,0.00,,,0.00,WeatherDisplay:10.37,2013-05-07 09:53:00,
2013-05-07 04:58:00,55.4,51.3,29.99,ESE,118,0.0,0.0,86,0.00,,,0.00,WeatherDisplay:10.37,2013-05-07 09:58:00,
2013-05-07 05:03:00,55.1,51.0,29.99,ESE,118,0.0,0.0,86,0.00,,,0.00,WeatherDisplay:10.37,2013-05-07 10:03:00,
2013-05-07 05:08:00,54.8,51.0,30.00,ESE,118,0.0,0.0,87,0.00,,,0.00,WeatherDisplay:10.37,2013-05-07 10:08:00,
2013-05-07 05:13:00,54.6,51.1,30.00,ESE,118,0.0,1.1,88,0.00,,,0.00,WeatherDisplay:10.37,2013-05-07 10:13:00,
2013-05-07 05:18:00,54.0,50.5,29.99,ESE,118,0.0,0.0,88,0.00,,,0.00,WeatherDisplay:10.37,2013-05-07 10:18:00,
2013-05-07 05:23:00,53.7,50.5,30.00,ESE,118,0.0,0.0,89,0.00,CLR,,0.00,WeatherDisplay:10.37,2013-05-07 10:23:00,
2013-05-07 05:28:00,53.5,50.3,29.99,ESE,118,0.0,0.0,89,0.00,CLR,,0.00,WeatherDisplay:10.37,2013-05-07 10:28:00,
2013-05-07 05:33:00,53.3,50.4,30.00,ESE,118,0.0,0.0,90,0.00,CLR,,0.00,WeatherDisplay:10.37,2013-05-07 10:33:00,
2013-05-07 05:38:00,53.3,50.4,30.00,ESE,118,0.0,0.0,90,0.00,CLR,,0.00,WeatherDisplay:10.37,2013-05-07 10:38:00,
2013-05-07 05:43:00,53.2,50.0,30.00,ESE,118,0.0,0.0,89,0.00,CLR,,0.00,WeatherDisplay:10.37,2013-05-07 10:43:00,
2013-05-07 05:48:00,53.0,50.1,30.00,ESE,118,0.0,0.0,90,0.00,CLR,,0.00,WeatherDisplay:10.37,2013-05-07 10:48:00,
2013-05-07 05:53:00,52.9,50.0,30.00,ESE,119,0.4,1.1,90,0.00,CLR,,0.00,WeatherDisplay:10.37,2013-05-07 10:53:00,
2013-05-07 05:58:00,52.7,50.1,30.00,ESE,119,0.0,1.0,91,0.00,CLR,,0.00,WeatherDisplay:10.37,2013-05-07 10:58:00,
2013-05-07 06:03:00,52.9,50.3,30.00,ESE,118,0.2,1.1,91,0.00,CLR,,0.00,WeatherDisplay:10.37,2013-05-07 11:03:00,
2013-05-07 06:08:00,53.0,50.1,30.00,ESE,118,0.0,0.0,90,0.00,CLR,,0.00,WeatherDisplay:10.37,2013-05-07 11:08:00,
2013-05-07 06:13:00,52.9,50.0,30.00,ESE,118,0.0,0.0,90,0.00,CLR,,0.00,WeatherDisplay:10.37,2013-05-07 11:13:00,
2013-05-07 06:18:00,52.8,49.9,30.00,ESE,118,0.0,0.0,90,0.00,CLR,,0.00,WeatherDisplay:10.37,2013-05-07 11:18:00,
2013-05-07 06:23:00,52.7,49.8,30.00,ESE,118,0.0,0.0,90,0.00,CLR,,0.00,WeatherDisplay:10.37,2013-05-07 11:23:00,
2013-05-07 06:28:00,52.8,49.9,30.01,ESE,118,0.0,0.0,90,0.00,CLR,,0.00,WeatherDisplay:10.37,2013-05-07 11:28:00,
2013-05-07 06:34:00,52.9,50.0,30.01,ESE,118,0.0,0.0,90,0.00,CLR,,0.00,WeatherDisplay:10.37,2013-05-07 11:34:00,
2013-05-07 06:39:00,53.2,50.3,30.01,ESE,118,0.0,0.0,90,0.00,CLR,,0.00,WeatherDisplay:10.37,2013-05-07 11:39:00,
2013-05-07 06:44:00,53.3,50.4,30.01,ESE,119,0.0,0.0,90,0.00,CLR,,0.00,WeatherDisplay:10.37,2013-05-07 11:44:00,
2013-05-07 06:49:00,53.6,50.7,30.01,ESE,118,0.0,0.0,90,0.00,CLR,,0.00,WeatherDisplay:10.37,2013-05-07 11:49:00,
2013-05-07 06:54:00,53.9,51.0,30.01,ESE,119,0.0,0.0,90,0.00,CLR,,0.00,WeatherDisplay:10.37,2013-05-07 11:54:00,
2013-05-07 06:59:00,54.5,51.3,30.01,ESE,118,0.0,0.0,89,0.00,CLR,,0.00,WeatherDisplay:10.37,2013-05-07 11:59:00,
2013-05-07 07:04:00,55.1,50.4,30.01,ESE,118,1.3,2.3,84,0.00,CLR,,0.00,WeatherDisplay:10.37,2013-05-07 12:04:00,
2013-05-07 07:09:00,56.0,50.6,30.01,ESE,119,0.8,1.1,82,0.00,CLR,,0.00,WeatherDisplay:10.37,2013-05-07 12:09:00,
2013-05-07 07:14:00,57.0,50.9,30.01,ESE,118,0.3,1.1,80,0.00,CLR,,0.00,WeatherDisplay:10.37,2013-05-07 12:14:00,
2013-05-07 07:19:00,58.0,50.1,30.01,ESE,116,1.0,1.1,75,0.00,CLR,,0.00,WeatherDisplay:10.37,2013-05-07 12:19:00,
2013-05-07 07:24:00,58.8,49.4,30.01,ESE,106,0.8,2.3,71,0.00,CLR,,0.00,WeatherDisplay:10.37,2013-05-07 12:24:00,
2013-05-07 07:29:00,59.6,49.8,30.02,ESE,123,0.0,0.0,70,0.00,CLR,,0.00,WeatherDisplay:10.37,2013-05-07 12:29:00,
2013-05-07 07:34:00,60.8,50.2,30.01,ESE,123,0.0,0.0,68,0.00,CLR,,0.00,WeatherDisplay:10.37,2013-05-07 12:34:00,
2013-05-07 07:39:00,62.8,51.3,30.01,ESE,123,0.0,0.0,66,0.00,CLR,,0.00,WeatherDisplay:10.37,2013-05-07 12:39:00,
2013-05-07 07:44:00,64.5,51.2,30.01,ESE,123,0.0,0.0,62,0.00,CLR,,0.00,WeatherDisplay:10.37,2013-05-07 12:44:00,
2013-05-07 07:49:00,64.5,50.3,30.01,ESE,123,0.6,1.1,60,0.00,CLR,,0.00,WeatherDisplay:10.37,2013-05-07 12:49:00,
2013-05-07 07:55:00,64.0,49.8,30.01,SE,124,0.8,2.3,60,0.00,CLR,,0.00,WeatherDisplay:10.37,2013-05-07 12:55:00,
2013-05-07 08:00:00,63.9,50.2,30.01,ESE,120,1.5,3.5,61,0.00,CLR,,0.00,WeatherDisplay:10.37,2013-05-07 13:00:00,
2013-05-07 08:05:00,64.0,49.8,30.01,SE,129,1.8,2.3,60,0.00,CLR,,0.00,WeatherDisplay:10.37,2013-05-07 13:05:00,
2013-05-07 08:10:00,64.5,49.8,30.01,SSE,155,2.0,2.3,59,0.00,CLR,,0.00,WeatherDisplay:10.37,2013-05-07 13:10:00,
2013-05-07 08:15:00,65.1,48.5,30.01,SE,142,2.2,2.3,55,0.00,CLR,,0.00,WeatherDisplay:10.37,2013-05-07 13:15:00,
2013-05-07 08:20:00,65.4,46.8,30.02,SSE,148,2.9,3.5,51,0.00,CLR,,0.00,WeatherDisplay:10.37,2013-05-07 13:20:00,
2013-05-07 08:25:00,65.7,47.6,30.02,SSE,149,3.0,4.0,52,0.00,CLR,,0.00,WeatherDisplay:10.37,2013-05-07 13:25:00,
2013-05-07 08:30:00,66.0,46.9,30.02,SE,145,2.0,4.0,50,0.00,CLR,,0.00,WeatherDisplay:10.37,2013-05-07 13:30:00,
2013-05-07 08:35:00,66.8,45.9,30.02,SE,128,1.6,3.0,47,0.00,CLR,,0.00,WeatherDisplay:10.37,2013-05-07 13:35:00,
2013-05-07 08:40:00,67.3,45.8,30.02,SSE,155,2.1,3.5,46,0.00,CLR,,0.00,WeatherDisplay:10.37,2013-05-07 13:40:00,
2013-05-07 08:45:00,67.5,45.4,30.02,ESE,110,1.9,3.5,45,0.00,CLR,,0.00,WeatherDisplay:10.37,2013-05-07 13:45:00,
2013-05-07 08:50:00,67.8,45.7,30.02,SE,129,0.5,3.5,45,0.00,CLR,,0.00,WeatherDisplay:10.37,2013-05-07 13:50:00,
2013-05-07 08:55:00,68.6,45.8,30.02,SSE,157,0.0,0.0,44,0.00,CLR,,0.00,WeatherDisplay:10.37,2013-05-07 13:55:00,
2013-05-07 09:00:00,69.5,46.0,30.02,South,170,0.1,1.1,43,0.00,CLR,,0.00,WeatherDisplay:10.37,2013-05-07 14:00:00,
2013-05-07 09:05:00,70.0,45.8,30.02,SSE,158,0.1,1.1,42,0.00,CLR,,0.00,WeatherDisplay:10.37,2013-05-07 14:05:00,
2013-05-07 09:10:00,70.3,42.8,30.02,ESE,122,0.8,2.0,37,0.00,CLR,,0.00,WeatherDisplay:10.37,2013-05-07 14:10:00,
2013-05-07 09:15:00,70.6,41.6,30.02,South,174,0.0,0.0,35,0.00,CLR,,0.00,WeatherDisplay:10.37,2013-05-07 14:15:00,
2013-05-07 09:20:00,70.6,43.1,30.02,West,269,0.3,1.1,37,0.00,CLR,,0.00,WeatherDisplay:10.37,2013-05-07 14:20:00,
2013-05-07 09:25:00,71.1,42.8,30.02,WSW,246,0.2,1.1,36,0.00,CLR,,0.00,WeatherDisplay:10.37,2013-05-07 14:25:00,
2013-05-07 09:30:00,71.6,46.0,30.02,WSW,243,0.1,1.1,40,0.00,CLR,,0.00,WeatherDisplay:10.37,2013-05-07 14:30:00,
2013-05-07 09:35:00,72.2,44.5,30.02,ENE,71,1.8,3.5,37,0.00,CLR,,0.00,WeatherDisplay:10.37,2013-05-07 14:35:00,
2013-05-07 09:40:00,71.7,42.6,30.02,East,82,2.0,3.5,35,0.00,CLR,,0.00,WeatherDisplay:10.37,2013-05-07 14:40:00,
2013-05-07 09:45:00,71.4,43.0,30.02,East,81,0.7,3.0,36,0.00,CLR,,0.00,WeatherDisplay:10.37,2013-05-07 14:45:00,
2013-05-07 09:50:00,71.3,42.2,30.02,East,80,1.6,3.5,35,0.00,CLR,,0.00,WeatherDisplay:10.37,2013-05-07 14:50:00,
2013-05-07 09:55:00,71.2,43.6,30.02,ENE,67,2.4,3.5,37,0.00,CLR,,0.00,WeatherDisplay:10.37,2013-05-07 14:55:00,
2013-05-07 10:00:00,71.4,46.5,30.02,East,91,1.8,2.3,41,0.00,CLR,,0.00,WeatherDisplay:10.37,2013-05-07 15:00:00,
2013-05-07 10:06:00,71.9,43.5,30.01,ESE,115,0.9,3.5,36,0.00,CLR,,0.00,WeatherDisplay:10.37,2013-05-07 15:06:00,
2013-05-07 10:11:00,71.8,43.4,30.01,ESE,104,0.6,2.3,36,0.00,CLR,,0.00,WeatherDisplay:10.37,2013-05-07 15:11:00,
2013-05-07 10:16:00,72.3,46.6,30.01,East,95,1.3,2.3,40,0.00,CLR,,0.00,WeatherDisplay:10.37,2013-05-07 15:16:00,
2013-05-07 10:21:00,72.8,45.7,30.01,East,88,0.4,1.1,38,0.00,CLR,,0.00,WeatherDisplay:10.37,2013-05-07 15:21:00,
2013-05-07 10:26:00,73.2,45.4,30.01,ENE,58,2.0,2.3,37,0.00,CLR,,0.00,WeatherDisplay:10.37,2013-05-07 15:26:00,
2013-05-07 10:31:00,73.1,46.7,30.02,East,80,0.6,1.1,39,0.00,CLR,,0.00,WeatherDisplay:10.37,2013-05-07 15:31:00,
2013-05-07 10:36:00,73.4,45.5,30.02,SE,131,0.7,3.0,37,0.00,CLR,,0.00,WeatherDisplay:10.37,2013-05-07 15:36:00,
2013-05-07 10:41:00,73.8,43.7,30.01,ENE,78,2.5,3.5,34,0.00,CLR,,0.00,WeatherDisplay:10.37,2013-05-07 15:41:00,
2013-05-07 10:46:00,73.8,45.9,30.02,ENE,72,1.5,3.5,37,0.00,CLR,,0.00,WeatherDisplay:10.37,2013-05-07 15:46:00,
2013-05-07 10:51:00,73.6,41.9,30.02,SE,145,1.2,2.3,32,0.00,CLR,,0.00,WeatherDisplay:10.37,2013-05-07 15:51:00,
2013-05-07 10:56:00,74.1,43.9,30.02,SE,129,1.8,4.6,34,0.00,CLR,,0.00,WeatherDisplay:10.37,2013-05-07 15:56:00,
2013-05-07 11:01:00,74.0,43.8,30.02,ESE,105,0.4,2.3,34,0.00,CLR,,0.00,WeatherDisplay:10.37,2013-05-07 16:01:00,
2013-05-07 11:06:00,74.1,44.7,30.02,ESE,113,2.3,3.5,35,0.00,CLR,,0.00,WeatherDisplay:10.37,2013-05-07 16:06:00,
2013-05-07 11:11:00,74.3,47.0,30.02,NNW,330,2.1,3.5,38,0.00,CLR,,0.00,WeatherDisplay:10.37,2013-05-07 16:11:00,
2013-05-07 11:16:00,74.1,48.2,30.01,NNE,33,2.3,4.0,40,0.00,CLR,,0.00,WeatherDisplay:10.37,2013-05-07 16:16:00,
2013-05-07 11:21:00,74.2,47.0,30.01,NNE,20,1.8,3.5,38,0.00,CLR,,0.00,WeatherDisplay:10.37,2013-05-07 16:21:00,
2013-05-07 11:26:00,74.8,44.5,30.01,SSE,148,3.3,5.8,34,0.00,CLR,,0.00,WeatherDisplay:10.37,2013-05-07 16:26:00,
2013-05-07 11:31:00,75.3,46.5,30.01,SE,130,3.0,4.6,36,0.00,CLR,,0.00,WeatherDisplay:10.37,2013-05-07 16:31:00,
2013-05-07 11:36:00,75.3,47.2,30.01,ENE,74,3.5,4.6,37,0.00,CLR,,0.00,WeatherDisplay:10.37,2013-05-07 16:36:00,
2013-05-07 11:41:00,75.1,47.0,30.01,ESE,122,2.4,5.0,37,0.00,CLR,,0.00,WeatherDisplay:10.37,2013-05-07 16:41:00,
2013-05-07 11:46:00,75.7,45.3,30.01,SE,143,2.0,3.0,34,0.00,CLR,,0.00,WeatherDisplay:10.37,2013-05-07 16:46:00,
2013-05-07 11:51:00,75.6,47.5,30.01,SE,131,1.0,1.1,37,0.00,CLR,,0.00,WeatherDisplay:10.37,2013-05-07 16:51:00,
2013-05-07 11:56:00,75.8,46.9,30.00,ENE,74,4.8,6.9,36,0.00,CLR,,0.00,WeatherDisplay:10.37,2013-05-07 16:56:00,
2013-05-07 12:01:00,75.9,46.3,30.01,NE,51,1.9,3.5,35,0.00,CLR,,0.00,WeatherDisplay:10.37,2013-05-07 17:01:00,
2013-05-07 12:06:00,76.1,44.9,30.00,ESE,120,5.2,8.1,33,0.00,CLR,,0.00,WeatherDisplay:10.37,2013-05-07 17:06:00,
2013-05-07 12:11:00,76.0,44.8,30.00,ESE,103,2.5,3.5,33,0.00,CLR,,0.00,WeatherDisplay:10.37,2013-05-07 17:11:00,
2013-05-07 12:16:00,75.7,43.7,30.00,ESE,103,1.7,3.5,32,0.00,CLR,,0.00,WeatherDisplay:10.37,2013-05-07 17:16:00,
2013-05-07 12:21:00,75.7,44.5,30.00,WNW,300,1.0,3.5,33,0.00,CLR,,0.00,WeatherDisplay:10.37,2013-05-07 17:21:00,
2013-05-07 12:26:00,75.9,42.2,30.00,ESE,105,1.2,4.6,30,0.00,CLR,,0.00,WeatherDisplay:10.37,2013-05-07 17:26:00,
2013-05-07 12:31:00,76.2,44.2,30.00,ESE,115,6.4,9.2,32,0.00,CLR,,0.00,WeatherDisplay:10.37,2013-05-07 17:31:00,
2013-05-07 12:36:00,76.4,45.2,29.99,ESE,111,3.7,4.0,33,0.00,CLR,,0.00,WeatherDisplay:10.37,2013-05-07 17:36:00,
2013-05-07 12:41:00,76.3,44.3,29.99,West,274,3.1,3.5,32,0.00,CLR,,0.00,WeatherDisplay:10.37,2013-05-07 17:41:00,
2013-05-07 12:46:00,76.2,43.3,29.99,SSW,212,3.1,4.6,31,0.00,CLR,,0.00,WeatherDisplay:10.37,2013-05-07 17:46:00,
2013-05-07 12:51:00,77.0,45.7,29.99,SW,232,1.7,4.0,33,0.00,CLR,,0.00,WeatherDisplay:10.37,2013-05-07 17:51:00,
2013-05-07 12:56:00,77.3,42.6,29.99,SSE,158,0.4,3.5,29,0.00,CLR,,0.00,WeatherDisplay:10.37,2013-05-07 17:56:00,
2013-05-07 13:01:00,77.7,47.1,29.99,NE,49,1.2,2.3,34,0.00,CLR,,0.00,WeatherDisplay:10.37,2013-05-07 18:01:00,
2013-05-07 13:06:00,77.7,44.6,29.99,ESE,113,2.4,6.0,31,0.00,CLR,,0.00,WeatherDisplay:10.37,2013-05-07 18:06:00,
2013-05-07 13:12:00,78.0,44.9,29.98,SSE,154,2.6,3.5,31,0.00,CLR,,0.00,WeatherDisplay:10.37,2013-05-07 18:12:00,
2013-05-07 13:17:00,78.4,46.1,29.98,East,88,2.2,3.5,32,0.00,CLR,,0.00,WeatherDisplay:10.37,2013-05-07 18:17:00,
2013-05-07 13:22:00,78.6,44.6,29.98,SE,131,0.3,2.0,30,0.00,CLR,,0.00,WeatherDisplay:10.37,2013-05-07 18:22:00,
2013-05-07 13:27:00,78.5,46.2,29.98,NE,52,1.8,3.5,32,0.00,CLR,,0.00,WeatherDisplay:10.37,2013-05-07 18:27:00,
2013-05-07 13:32:00,78.1,49.7,29.98,ENE,74,2.4,3.5,37,0.00,CLR,,0.00,WeatherDisplay:10.37,2013-05-07 18:32:00,
2013-05-07 13:37:00,78.4,43.5,29.98,ESE,105,3.3,6.9,29,0.00,CLR,,0.00,WeatherDisplay:10.37,2013-05-07 18:37:00,
2013-05-07 13:42:00,78.7,47.2,29.98,NE,34,3.0,4.6,33,0.00,CLR,,0.00,WeatherDisplay:10.37,2013-05-07 18:42:00,
2013-05-07 13:47:00,78.7,43.8,29.98,SE,127,6.0,8.1,29,0.00,CLR,,0.00,WeatherDisplay:10.37,2013-05-07 18:47:00,
2013-05-07 13:52:00,78.7,43.8,29.98,SE,131,2.0,3.5,29,0.00,CLR,,0.00,WeatherDisplay:10.37,2013-05-07 18:52:00,
2013-05-07 13:57:00,79.0,45.8,29.97,NNE,22,3.4,5.0,31,0.00,CLR,,0.00,WeatherDisplay:10.37,2013-05-07 18:57:00,
2013-05-07 14:02:00,78.8,44.7,29.97,NE,39,4.6,6.9,30,0.00,,,0.00,WeatherDisplay:10.37,2013-05-07 19:02:00,
2013-05-07 14:07:00,78.4,45.3,29.97,NE,50,3.0,6.0,31,0.00,,,0.00,WeatherDisplay:10.37,2013-05-07 19:07:00,
2013-05-07 14:12:00,77.7,44.6,29.97,NE,44,3.2,5.8,31,0.00,,,0.00,WeatherDisplay:10.37,2013-05-07 19:12:00,
2013-05-07 14:17:00,77.6,43.7,29.97,East,81,3.9,8.1,30,0.00,,,0.00,WeatherDisplay:10.37,2013-05-07 19:17:00,
2013-05-07 14:22:00,77.9,44.0,29.97,North,356,0.5,3.5,30,0.00,,,0.00,WeatherDisplay:10.37,2013-05-07 19:22:00,
2013-05-07 14:27:00,78.0,46.6,29.97,North,352,2.8,3.5,33,0.00,,,0.00,WeatherDisplay:10.37,2013-05-07 19:27:00,
2013-05-07 14:32:00,78.1,46.6,29.97,NNE,12,0.2,1.1,33,0.00,,,0.00,WeatherDisplay:10.37,2013-05-07 19:32:00,
2013-05-07 14:37:00,78.8,44.7,29.97,West,276,1.2,2.3,30,0.00,,,0.00,WeatherDisplay:10.37,2013-05-07 19:37:00,
2013-05-07 14:42:00,78.3,40.6,29.96,North,4,3.5,4.6,26,0.00,,,0.00,WeatherDisplay:10.37,2013-05-07 19:42:00,
2013-05-07 14:47:00,78.0,43.2,29.97,WNW,290,1.6,2.3,29,0.00,,,0.00,WeatherDisplay:10.37,2013-05-07 19:47:00,
2013-05-07 14:52:00,78.3,41.6,29.96,SE,136,1.8,2.3,27,0.00,,,0.00,WeatherDisplay:10.37,2013-05-07 19:52:00,
2013-05-07 14:57:00,79.3,46.0,29.96,NW,314,1.7,3.5,31,0.00,,,0.00,WeatherDisplay:10.37,2013-05-07 19:57:00,
2013-05-07 15:02:00,79.2,45.9,29.96,NW,318,3.9,5.8,31,0.00,,,0.00,WeatherDisplay:10.37,2013-05-07 20:02:00,
2013-05-07 15:07:00,78.8,43.8,29.96,ENE,68,3.1,4.6,29,0.00,,,0.00,WeatherDisplay:10.37,2013-05-07 20:07:00,
2013-05-07 15:12:00,79.1,43.2,29.96,NNE,22,1.5,5.0,28,0.00,,,0.00,WeatherDisplay:10.37,2013-05-07 20:12:00,
2013-05-07 15:17:00,78.7,43.8,29.96,ENE,68,5.0,9.2,29,0.00,,,0.00,WeatherDisplay:10.37,2013-05-07 20:17:00,
2013-05-07 15:22:00,78.6,43.7,29.96,NE,56,3.8,5.8,29,0.00,,,0.00,WeatherDisplay:10.37,2013-05-07 20:22:00,
2013-05-07 15:27:00,78.3,42.5,29.96,ESE,103,1.3,2.3,28,0.00,,,0.00,WeatherDisplay:10.37,2013-05-07 20:27:00,
2013-05-07 15:32:00,78.1,42.3,29.96,NNE,30,1.9,4.6,28,0.00,,,0.00,WeatherDisplay:10.37,2013-05-07 20:32:00,
2013-05-07 15:37:00,78.0,43.2,29.95,NW,321,2.3,3.5,29,0.00,,,0.00,WeatherDisplay:10.37,2013-05-07 20:37:00,
2013-05-07 15:42:00,78.3,43.4,29.95,SSE,167,1.5,4.0,29,0.00,,,0.00,WeatherDisplay:10.37,2013-05-07 20:42:00,
2013-05-07 15:47:00,79.7,42.8,29.95,SE,143,2.8,3.5,27,0.00,,,0.00,WeatherDisplay:10.37,2013-05-07 20:47:00,
2013-05-07 15:52:00,80.1,42.1,29.95,SSW,204,1.8,3.5,26,0.00,,,0.00,WeatherDisplay:10.37,2013-05-07 20:52:00,
2013-05-07 15:57:00,80.4,43.3,29.95,East,93,2.3,3.5,27,0.00,,,0.00,WeatherDisplay:10.37,2013-05-07 20:57:00,
2013-05-07 16:02:00,80.2,45.1,29.95,NNE,16,2.7,4.0,29,0.00,,,0.00,WeatherDisplay:10.37,2013-05-07 21:02:00,
2013-05-07 16:07:00,79.7,42.8,29.95,NNE,20,2.7,4.6,27,0.00,,,0.00,WeatherDisplay:10.37,2013-05-07 21:07:00,
2013-05-07 16:12:00,79.2,44.2,29.95,NNE,16,3.6,4.6,29,0.00,,,0.00,WeatherDisplay:10.37,2013-05-07 21:12:00,
2013-05-07 16:17:00,79.1,45.9,29.94,WNW,299,2.0,4.0,31,0.00,,,0.00,WeatherDisplay:10.37,2013-05-07 21:17:00,
2013-05-07 16:22:00,78.9,44.8,29.95,WNW,294,4.8,5.8,30,0.00,,,0.00,WeatherDisplay:10.37,2013-05-07 21:22:00,
2013-05-07 16:27:00,78.7,43.8,29.94,WNW,290,3.2,5.8,29,0.00,,,0.00,WeatherDisplay:10.37,2013-05-07 21:27:00,
2013-05-07 16:32:00,78.6,44.6,29.94,WNW,291,4.1,4.6,30,0.00,,,0.00,WeatherDisplay:10.37,2013-05-07 21:32:00,
2013-05-07 16:37:00,78.4,44.4,29.94,WNW,288,5.4,6.9,30,0.00,,,0.00,WeatherDisplay:10.37,2013-05-07 21:37:00,
2013-05-07 16:42:00,78.6,45.4,29.94,West,263,3.9,5.0,31,0.00,,,0.00,WeatherDisplay:10.37,2013-05-07 21:42:00,
2013-05-07 16:47:00,79.1,47.5,29.94,North,350,3.6,8.1,33,0.00,,,0.00,WeatherDisplay:10.37,2013-05-07 21:47:00,
2013-05-07 16:52:00,78.8,43.8,29.94,WNW,290,3.3,3.5,29,0.00,,,0.00,WeatherDisplay:10.37,2013-05-07 21:52:00,
2013-05-07 16:57:00,78.6,45.4,29.94,West,281,0.8,3.5,31,0.00,,,0.00,WeatherDisplay:10.37,2013-05-07 21:57:00,
2013-05-07 17:02:00,78.8,47.3,29.94,NW,309,2.7,5.0,33,0.00,CLR,,0.00,WeatherDisplay:10.37,2013-05-07 22:02:00,
2013-05-07 17:07:00,79.0,44.9,29.94,West,275,3.9,5.8,30,0.00,CLR,,0.00,WeatherDisplay:10.37,2013-05-07 22:07:00,
2013-05-07 17:12:00,79.0,45.8,29.94,WNW,291,3.5,6.0,31,0.00,CLR,,0.00,WeatherDisplay:10.37,2013-05-07 22:12:00,
2013-05-07 17:17:00,78.7,42.8,29.94,WNW,284,5.7,6.9,28,0.00,CLR,,0.00,WeatherDisplay:10.37,2013-05-07 22:17:00,
2013-05-07 17:22:00,78.4,43.5,29.94,WNW,290,1.8,3.5,29,0.00,CLR,,0.00,WeatherDisplay:10.37,2013-05-07 22:22:00,
2013-05-07 17:27:00,78.9,42.1,29.94,SW,231,4.2,5.8,27,0.00,CLR,,0.00,WeatherDisplay:10.37,2013-05-07 22:27:00,
2013-05-07 17:32:00,78.6,44.6,29.94,WNW,285,3.9,7.0,30,0.00,CLR,,0.00,WeatherDisplay:10.37,2013-05-07 22:32:00,
2013-05-07 17:38:00,78.6,43.7,29.94,WSW,248,5.5,6.9,29,0.00,CLR,,0.00,WeatherDisplay:10.37,2013-05-07 22:38:00,
2013-05-07 17:43:00,78.9,43.9,29.94,West,278,2.6,3.5,29,0.00,CLR,,0.00,WeatherDisplay:10.37,2013-05-07 22:43:00,
2013-05-07 17:48:00,78.7,42.8,29.94,WNW,299,3.1,3.5,28,0.00,CLR,,0.00,WeatherDisplay:10.37,2013-05-07 22:48:00,
2013-05-07 17:53:00,78.6,44.6,29.94,WNW,300,2.7,3.5,30,0.00,CLR,,0.00,WeatherDisplay:10.37,2013-05-07 22:53:00,
2013-05-07 17:58:00,78.7,42.8,29.94,NE,36,0.0,0.0,28,0.00,CLR,,0.00,WeatherDisplay:10.37,2013-05-07 22:58:00,
2013-05-07 18:03:00,79.2,43.3,29.94,WNW,294,2.9,3.5,28,0.00,CLR,,0.00,WeatherDisplay:10.37,2013-05-07 23:03:00,
2013-05-07 18:08:00,79.0,42.2,29.93,SSE,153,0.9,2.3,27,0.00,CLR,,0.00,WeatherDisplay:10.37,2013-05-07 23:08:00,
2013-05-07 18:13:00,79.7,44.6,29.94,NNE,18,1.7,3.5,29,0.00,CLR,,0.00,WeatherDisplay:10.37,2013-05-07 23:13:00,
2013-05-07 18:18:00,79.0,42.2,29.93,NE,40,0.2,2.3,27,0.00,CLR,,0.00,WeatherDisplay:10.37,2013-05-07 23:18:00,
2013-05-07 18:23:00,79.1,44.1,29.93,West,262,0.7,1.1,29,0.00,CLR,,0.00,WeatherDisplay:10.37,2013-05-07 23:23:00,
2013-05-07 18:28:00,79.2,42.3,29.93,WSW,253,0.4,1.1,27,0.00,CLR,,0.00,WeatherDisplay:10.37,2013-05-07 23:28:00,
2013-05-07 18:33:00,79.6,41.7,29.93,SW,229,0.8,1.1,26,0.00,CLR,,0.00,WeatherDisplay:10.37,2013-05-07 23:33:00,
2013-05-07 18:38:00,80.0,45.8,29.93,WNW,284,1.9,2.3,30,0.00,CLR,,0.00,WeatherDisplay:10.37,2013-05-07 23:38:00,
2013-05-07 18:43:00,79.2,42.3,29.93,WSW,240,2.7,3.5,27,0.00,CLR,,0.00,WeatherDisplay:10.37,2013-05-07 23:43:00,
2013-05-07 18:48:00,78.4,44.4,29.93,WSW,238,0.1,1.1,30,0.00,CLR,,0.00,WeatherDisplay:10.37,2013-05-07 23:48:00,
2013-05-07 18:53:00,77.4,43.5,29.93,NNE,23,1.0,2.3,30,0.00,CLR,,0.00,WeatherDisplay:10.37,2013-05-07 23:53:00,
2013-05-07 18:58:00,76.7,42.9,29.93,NNE,28,1.0,1.1,30,0.00,CLR,,0.00,WeatherDisplay:10.37,2013-05-07 23:58:00,
2013-05-07 19:03:00,76.3,41.7,29.93,NNE,28,0.0,0.0,29,0.00,CLR,,0.00,WeatherDisplay:10.37,2013-05-08 00:03:00,
2013-05-07 19:08:00,76.0,43.2,29.93,NNE,28,0.0,0.0,31,0.00,CLR,,0.00,WeatherDisplay:10.37,2013-05-08 00:08:00,
2013-05-07 19:13:00,75.8,43.0,29.93,NNE,29,0.3,1.1,31,0.00,CLR,,0.00,WeatherDisplay:10.37,2013-05-08 00:13:00,
2013-05-07 19:18:00,75.6,44.5,29.93,NE,39,1.0,2.0,33,0.00,CLR,,0.00,WeatherDisplay:10.37,2013-05-08 00:18:00,
2013-05-07 19:23:00,75.1,47.0,29.93,ENE,64,0.9,1.1,37,0.00,CLR,,0.00,WeatherDisplay:10.37,2013-05-08 00:23:00,
2013-05-07 19:28:00,74.8,46.1,29.93,ENE,64,0.0,0.0,36,0.00,CLR,,0.00,WeatherDisplay:10.37,2013-05-08 00:28:00,
2013-05-07 19:33:00,74.2,46.2,29.94,ENE,64,0.0,0.0,37,0.00,CLR,,0.00,WeatherDisplay:10.37,2013-05-08 00:33:00,
2013-05-07 19:38:00,73.6,45.7,29.94,ENE,63,0.0,0.0,37,0.00,CLR,,0.00,WeatherDisplay:10.37,2013-05-08 00:38:00,
2013-05-07 19:43:00,72.9,45.1,29.94,ENE,64,0.0,0.0,37,0.00,CLR,,0.00,WeatherDisplay:10.37,2013-05-08 00:43:00,
2013-05-07 19:48:00,72.2,46.5,29.94,ENE,64,0.0,0.0,40,0.00,CLR,,0.00,WeatherDisplay:10.37,2013-05-08 00:48:00,
2013-05-07 19:53:00,71.5,45.9,29.94,ENE,63,0.0,0.0,40,0.00,CLR,,0.00,WeatherDisplay:10.37,2013-05-08 00:53:00,
2013-05-07 19:58:00,71.0,48.0,29.94,ENE,64,0.0,0.0,44,0.00,CLR,,0.00,WeatherDisplay:10.37,2013-05-08 00:58:00,
2013-05-07 20:03:00,70.3,47.3,29.94,ENE,64,0.0,0.0,44,0.00,CLR,,0.00,WeatherDisplay:10.37,2013-05-08 01:03:00,
2013-05-07 20:08:00,69.6,47.9,29.94,East,80,0.7,1.1,46,0.00,CLR,,0.00,WeatherDisplay:10.37,2013-05-08 01:08:00,
2013-05-07 20:13:00,68.9,46.1,29.94,South,169,1.0,2.3,44,0.00,CLR,,0.00,WeatherDisplay:10.37,2013-05-08 01:13:00,
2013-05-07 20:18:00,68.5,49.1,29.94,South,169,0.0,0.0,50,0.00,CLR,,0.00,WeatherDisplay:10.37,2013-05-08 01:18:00,
2013-05-07 20:23:00,67.8,48.5,29.94,South,169,0.0,0.0,50,0.00,CLR,,0.00,WeatherDisplay:10.37,2013-05-08 01:23:00,
2013-05-07 20:28:00,67.2,46.8,29.94,South,169,0.0,0.0,48,0.00,CLR,,0.00,WeatherDisplay:10.37,2013-05-08 01:28:00,
2013-05-07 20:33:00,66.6,46.8,29.94,South,169,0.0,0.0,49,0.00,CLR,,0.00,WeatherDisplay:10.37,2013-05-08 01:33:00,
2013-05-07 20:38:00,65.8,46.6,29.94,South,169,0.0,0.0,50,0.00,,,0.00,WeatherDisplay:10.37,2013-05-08 01:38:00,
2013-05-07 20:43:00,65.3,45.1,29.94,South,169,0.0,0.0,48,0.00,,,0.00,WeatherDisplay:10.37,2013-05-08 01:43:00,
2013-05-07 20:48:00,65.0,44.8,29.94,South,169,0.0,0.0,48,0.00,,,0.00,WeatherDisplay:10.37,2013-05-08 01:48:00,
2013-05-07 20:53:00,64.7,45.1,29.94,South,169,0.0,0.0,49,0.00,,,0.00,WeatherDisplay:10.37,2013-05-08 01:53:00,
2013-05-07 20:58:00,65.0,48.4,29.95,South,169,0.0,0.0,55,0.00,,,0.00,WeatherDisplay:10.37,2013-05-08 01:58:00,
2013-05-07 21:03:00,64.8,48.2,29.95,South,169,0.0,0.0,55,0.00,,,0.00,WeatherDisplay:10.37,2013-05-08 02:03:00,
2013-05-07 21:08:00,64.7,49.1,29.95,South,169,0.0,0.0,57,0.00,,,0.00,WeatherDisplay:10.37,2013-05-08 02:08:00,
2013-05-07 21:14:00,64.4,48.8,29.95,South,169,0.0,0.0,57,0.00,,,0.00,WeatherDisplay:10.37,2013-05-08 02:14:00,
2013-05-07 21:19:00,63.9,47.4,29.95,South,169,0.0,0.0,55,0.00,,,0.00,WeatherDisplay:10.37,2013-05-08 02:19:00,
2013-05-07 21:24:00,63.8,48.3,29.95,South,169,0.0,0.0,57,0.00,,,0.00,WeatherDisplay:10.37,2013-05-08 02:24:00,
2013-05-07 21:29:00,64.0,47.5,29.95,South,169,0.0,0.0,55,0.00,,,0.00,WeatherDisplay:10.37,2013-05-08 02:29:00,
2013-05-07 21:34:00,64.3,48.7,29.95,South,169,0.0,0.0,57,0.00,,,0.00,WeatherDisplay:10.37,2013-05-08 02:34:00,
2013-05-07 21:39:00,63.9,47.9,29.96,South,169,0.0,0.0,56,0.00,,,0.00,WeatherDisplay:10.37,2013-05-08 02:39:00,
2013-05-07 21:44:00,63.4,48.8,29.95,South,169,0.0,0.0,59,0.00,,,0.00,WeatherDisplay:10.37,2013-05-08 02:44:00,
2013-05-07 21:49:00,62.8,47.8,29.96,South,169,0.0,0.0,58,0.00,,,0.00,WeatherDisplay:10.37,2013-05-08 02:49:00,
2013-05-07 21:54:00,62.4,47.4,29.96,South,169,0.0,0.0,58,0.00,,,0.00,WeatherDisplay:10.37,2013-05-08 02:54:00,
2013-05-07 21:59:00,62.3,46.4,29.96,South,169,0.0,0.0,56,0.00,,,0.00,WeatherDisplay:10.37,2013-05-08 02:59:00,
2013-05-07 22:04:00,62.7,46.8,29.96,South,169,0.0,0.0,56,0.00,,,0.00,WeatherDisplay:10.37,2013-05-08 03:04:00,
2013-05-07 22:09:00,62.7,46.8,29.96,South,169,0.0,0.0,56,0.00,,,0.00,WeatherDisplay:10.37,2013-05-08 03:09:00,
2013-05-07 22:14:00,63.0,47.5,29.96,South,169,0.0,0.0,57,0.00,,,0.00,WeatherDisplay:10.37,2013-05-08 03:14:00,
2013-05-07 22:19:00,63.1,49.0,29.96,South,169,0.0,0.0,60,0.00,,,0.00,WeatherDisplay:10.37,2013-05-08 03:19:00,
2013-05-07 22:24:00,62.7,49.1,29.96,South,169,0.0,0.0,61,0.00,,,0.00,WeatherDisplay:10.37,2013-05-08 03:24:00,
2013-05-07 22:29:00,62.2,48.6,29.96,South,169,0.0,0.0,61,0.00,,,0.00,WeatherDisplay:10.37,2013-05-08 03:29:00,
2013-05-07 22:34:00,62.2,49.4,29.96,South,169,0.0,0.0,63,0.00,,,0.00,WeatherDisplay:10.37,2013-05-08 03:34:00,
2013-05-07 22:39:00,62.3,49.1,29.96,South,169,0.0,0.0,62,0.00,,,0.00,WeatherDisplay:10.37,2013-05-08 03:39:00,
2013-05-07 22:44:00,62.3,47.3,29.95,South,169,0.0,0.0,58,0.00,,,0.00,WeatherDisplay:10.37,2013-05-08 03:44:00,
2013-05-07 22:49:00,62.6,47.6,29.95,South,169,0.0,0.0,58,0.00,,,0.00,WeatherDisplay:10.37,2013-05-08 03:49:00,
2013-05-07 22:54:00,63.0,47.5,29.95,South,169,0.0,0.0,57,0.00,,,0.00,WeatherDisplay:10.37,2013-05-08 03:54:00,
2013-05-07 22:59:00,62.6,50.2,29.95,South,169,0.0,0.0,64,0.00,,,0.00,WeatherDisplay:10.37,2013-05-08 03:59:00,
2013-05-07 23:01:00,62.2,50.3,29.95,South,169,0.0,0.0,65,0.00,,,0.00,WeatherDisplay:10.37,2013-05-08 04:01:00,
2013-05-07 23:06:00,60.9,50.3,29.95,South,169,0.0,0.0,68,0.00,,,0.00,WeatherDisplay:10.37,2013-05-08 04:06:00,
2013-05-07 23:11:00,60.1,49.1,29.95,South,169,0.0,0.0,67,0.00,,,0.00,WeatherDisplay:10.37,2013-05-08 04:11:00,
2013-05-07 23:16:00,59.3,49.5,29.95,South,169,0.0,0.0,70,0.00,,,0.00,WeatherDisplay:10.37,2013-05-08 04:16:00,
2013-05-07 23:21:00,58.6,49.2,29.95,South,169,0.0,0.0,71,0.00,,,0.00,WeatherDisplay:10.37,2013-05-08 04:21:00,
2013-05-07 23:26:00,58.0,49.0,29.95,South,169,0.0,0.0,72,0.00,,,0.00,WeatherDisplay:10.37,2013-05-08 04:26:00,
2013-05-07 23:31:00,58.1,49.1,29.95,SSE,155,0.8,1.1,72,0.00,,,0.00,WeatherDisplay:10.37,2013-05-08 04:31:00,
2013-05-07 23:36:00,58.0,49.4,29.95,SSE,155,0.0,0.0,73,0.00,,,0.00,WeatherDisplay:10.37,2013-05-08 04:36:00,
2013-05-07 23:41:00,57.7,48.4,29.95,SSE,155,0.0,0.0,71,0.00,,,0.00,WeatherDisplay:10.37,2013-05-08 04:41:00,
2013-05-07 23:46:00,57.5,47.8,29.95,SSE,155,0.0,0.0,70,0.00,,,0.00,WeatherDisplay:10.37,2013-05-08 04:46:00,
2013-05-07 23:51:00,57.1,46.2,29.95,SSE,155,0.0,0.0,67,0.00,,,0.00,WeatherDisplay:10.37,2013-05-08 04:51:00,
2013-05-07 23:56:00,57.5,47.0,29.95,SSE,155,0.3,1.0,68,0.00,,,0.00,WeatherDisplay:10.37,2013-05-08 04:56:00,